User: anonymous   Login
Location: Brede
(50.9167°N, 0.6000°E)
Time: 07:35:08
(UTC+00:00)
Language:

CZ-4C R/B - Orbit

View from above orbital plane
View from above orbital plane
View from above satellite
View from above satellite

Ground track
Ground track

The orbit data is extracted from the following two-line orbital elements,

1 32290U 07055B   20296.05234115  .00002208  00000-0  56289-4 0  9999
2 32290  97.6662  97.1173 0061639  84.0093 276.8171 15.38809331719652
Epoch (UTC): 22 October 2020 01:15:22
Eccentricity: 0.0061639
inclination: 97.6662°
perigee height: 407 km
apogee height: 492 km
right ascension of ascending node: 97.1173°
argument of perigee: 84.0093°
revolutions per day: 15.38809331
mean anomaly at epoch: 276.8171°
orbit number at epoch: 71965

The dashed part of the orbit path shows where the satellite is in the earth's shadow,  

DLR